• In Latvia
  • List of Countries
  • For 7 days
  • Water Temperature
  • Satellite Maps
  • Weather Map
  • Weather Widgets
  • user-avatar
    Login

    Hourly Weather Sumgayit

    Today, 25 March, Saturday

    Time Temperature Precipitation Wind Pressure Humidity
    00:00 +4°C° 0 mm 2 mps 747 mmHg 87%
    01:00 +4°C° 0 mm 2 mps 747 mmHg 87%
    02:00 +3°C° 0 mm 2 mps 746 mmHg 88%
    03:00 +2°C° 0 mm 3 mps 746 mmHg 88%
    04:00 +2°C° 0 mm 3 mps 745 mmHg 88%
    05:00 +2°C° 0 mm 3 mps 745 mmHg 87%
    06:00 +1°C° 0 mm 4 mps 745 mmHg 87%
    07:00 +4°C° 0 mm 4 mps 745 mmHg 82%
    08:00 +5°C° 0 mm 5 mps 745 mmHg 78%
    09:00 +7°C° 0 mm 6 mps 745 mmHg 73%
    10:00 +8°C° 0 mm 6 mps 744 mmHg 69%
    11:00 +8°C° 0 mm 6 mps 744 mmHg 65%
    12:00 +9°C° 0 mm 7 mps 743 mmHg 61%
    13:00 +10°C° 0 mm 7 mps 743 mmHg 59%
    14:00 +10°C° 0 mm 7 mps 742 mmHg 57%
    15:00 +11°C° 0 mm 7 mps 742 mmHg 55%
    16:00 +10°C° 0 mm 7 mps 742 mmHg 61%
    17:00 +9°C° 0 mm 7 mps 741 mmHg 66%
    18:00 +8°C° 0 mm 6 mps 741 mmHg 72%
    19:00 +7°C° 0 mm 6 mps 741 mmHg 76%
    20:00 +6°C° 0 mm 5 mps 741 mmHg 80%
    21:00 +6°C° 0 mm 5 mps 741 mmHg 85%
    22:00 +6°C° 0 mm 5 mps 741 mmHg 86%
    23:00 +5°C° 0 mm 5 mps 741 mmHg 87%

    Tomorrow, 26 March, Sunday

    Time Temperature Precipitation Wind Pressure Humidity
    00:00 +5°C° 0 mm 4 mps 740 mmHg 88%
    01:00 +5°C° 0 mm 4 mps 740 mmHg 89%
    02:00 +5°C° 0 mm 4 mps 740 mmHg 90%
    03:00 +4°C° 0 mm 4 mps 739 mmHg 91%
    04:00 +4°C° 0 mm 4 mps 739 mmHg 91%
    05:00 +3°C° 0 mm 5 mps 739 mmHg 91%
    06:00 +3°C° 0 mm 5 mps 739 mmHg 91%
    07:00 +6°C° 0 mm 5 mps 739 mmHg 81%
    08:00 +8°C° 0 mm 5 mps 739 mmHg 72%
    09:00 +9°C° 0 mm 6 mps 740 mmHg 63%
    10:00 +11°C° 0 mm 6 mps 739 mmHg 57%
    11:00 +13°C° 0 mm 6 mps 739 mmHg 52%
    12:00 +14°C° 0 mm 7 mps 739 mmHg 46%
    13:00 +15°C° 0 mm 7 mps 739 mmHg 45%
    14:00 +15°C° 0 mm 7 mps 738 mmHg 44%
    15:00 +16°C° 0 mm 7 mps 738 mmHg 43%
    16:00 +14°C° 0 mm 7 mps 738 mmHg 47%
    17:00 +13°C° 0 mm 6 mps 738 mmHg 52%
    18:00 +11°C° 0 mm 6 mps 738 mmHg 57%
    19:00 +10°C° 0 mm 5 mps 738 mmHg 62%
    20:00 +9°C° 0 mm 5 mps 738 mmHg 67%
    21:00 +8°C° 0 mm 4 mps 739 mmHg 72%
    22:00 +9°C° 0 mm 3 mps 739 mmHg 75%
    23:00 +8°C° 0 mm 3 mps 739 mmHg 77%

    Day after tomorrow, 27 March, Monday

    Time Temperature Precipitation Wind Pressure Humidity
    00:00 +8°C° 0 mm 2 mps 738 mmHg 80%
    01:00 +7°C° 0 mm 2 mps 738 mmHg 81%
    02:00 +7°C° 0 mm 2 mps 738 mmHg 82%
    03:00 +7°C° 0 mm 2 mps 738 mmHg 82%
    04:00 +7°C° 0 mm 2 mps 738 mmHg 81%
    05:00 +6°C° 0 mm 2 mps 738 mmHg 80%
    06:00 +6°C° 0 mm 2 mps 738 mmHg 79%
    07:00 +8°C° 0 mm 3 mps 739 mmHg 71%
    08:00 +9°C° 0 mm 3 mps 739 mmHg 64%
    09:00 +11°C° 0 mm 3 mps 739 mmHg 56%
    10:00 +12°C° 0 mm 3 mps 739 mmHg 53%
    11:00 +13°C° 0 mm 3 mps 739 mmHg 50%
    12:00 +14°C° 0 mm 3 mps 738 mmHg 47%
    13:00 +14°C° 0 mm 4 mps 738 mmHg 46%
    14:00 +15°C° 0 mm 5 mps 737 mmHg 45%
    15:00 +15°C° 0 mm 5 mps 737 mmHg 44%
    16:00 +14°C° 0 mm 5 mps 737 mmHg 50%
    17:00 +13°C° 0 mm 4 mps 737 mmHg 55%
    18:00 +12°C° 0 mm 3 mps 737 mmHg 61%
    19:00 +11°C° 0 mm 3 mps 737 mmHg 64%
    20:00 +10°C° 0 mm 2 mps 737 mmHg 67%
    21:00 +10°C° 0 mm 2 mps 737 mmHg 70%
    22:00 +10°C° 0 mm 2 mps 737 mmHg 69%
    23:00 +10°C° 0 mm 3 mps 736 mmHg 68%

    28 March, Tuesday

    Time Temperature Precipitation Wind Pressure Humidity
    00:00 +10°C° 0 mm 3 mps 736 mmHg 66%
    01:00 +10°C° 0 mm 3 mps 736 mmHg 63%
    02:00 +10°C° 0 mm 4 mps 735 mmHg 59%
    03:00 +10°C° 0 mm 4 mps 735 mmHg 56%
    04:00 +10°C° 0 mm 4 mps 735 mmHg 57%
    05:00 +8°C° 0 mm 4 mps 735 mmHg 59%
    06:00 +8°C° 0 mm 4 mps 735 mmHg 61%
    07:00 +10°C° 0 mm 4 mps 736 mmHg 57%
    08:00 +12°C° 0 mm 4 mps 736 mmHg 54%
    09:00 +13°C° 0 mm 4 mps 736 mmHg 51%
    10:00 +14°C° 0 mm 4 mps 736 mmHg 50%
    11:00 +15°C° 0 mm 5 mps 736 mmHg 48%
    12:00 +15°C° 0 mm 6 mps 736 mmHg 47%
    13:00 +15°C° 0 mm 7 mps 736 mmHg 50%
    14:00 +13°C° 0 mm 8 mps 736 mmHg 53%
    15:00 +12°C° 0 mm 9 mps 736 mmHg 55%
    16:00 +11°C° 0 mm 9 mps 737 mmHg 59%
    17:00 +8°C° 0 mm 9 mps 737 mmHg 64%
    18:00 +7°C° 0 mm 10 mps 738 mmHg 68%
    19:00 +7°C° 0 mm 8 mps 739 mmHg 70%
    20:00 +6°C° 0 mm 7 mps 739 mmHg 73%
    21:00 +7°C° 0 mm 6 mps 740 mmHg 76%
    22:00 +7°C° 0 mm 5 mps 740 mmHg 77%
    23:00 +7°C° 0 mm 5 mps 740 mmHg 78%

    29 March, Wednesday

    Time Temperature Precipitation Wind Pressure Humidity
    00:00 +7°C° 0 mm 4 mps 741 mmHg 79%
    01:00 +7°C° 0 mm 3 mps 741 mmHg 80%
    02:00 +7°C° 0 mm 3 mps 741 mmHg 81%
    03:00 +7°C° 0 mm 2 mps 741 mmHg 83%
    04:00 +7°C° 0 mm 2 mps 741 mmHg 84%
    05:00 +7°C° 0 mm 1 mps 741 mmHg 86%
    06:00 +7°C° 0 mm 1 mps 741 mmHg 87%
    07:00 +8°C° 0 mm 1 mps 742 mmHg 80%
    08:00 +9°C° 0 mm 1 mps 742 mmHg 73%
    09:00 +10°C° 0 mm 1 mps 742 mmHg 66%
    10:00 +10°C° 0 mm 2 mps 742 mmHg 61%
    11:00 +12°C° 0 mm 2 mps 742 mmHg 57%
    12:00 +12°C° 0 mm 3 mps 742 mmHg 52%
    13:00 +12°C° 0 mm 3 mps 742 mmHg 52%
    14:00 +12°C° 0 mm 4 mps 742 mmHg 52%
    15:00 +12°C° 0 mm 5 mps 742 mmHg 51%
    16:00 +10°C° 0 mm 5 mps 743 mmHg 56%
    17:00 +9°C° 0 mm 5 mps 743 mmHg 60%
    18:00 +8°C° 0 mm 5 mps 744 mmHg 64%
    19:00 +7°C° 0 mm 4 mps 745 mmHg 65%
    20:00 +8°C° 0 mm 3 mps 746 mmHg 65%
    21:00 +7°C° 0 mm 3 mps 747 mmHg 66%
    22:00 +7°C° 0 mm 2 mps 747 mmHg 66%
    23:00 +7°C° 0 mm 2 mps 747 mmHg 66%

    30 March, Thursday

    Time Temperature Precipitation Wind Pressure Humidity
    00:00 +7°C° 0 mm 2 mps 748 mmHg 67%
    01:00 +7°C° 0 mm 2 mps 748 mmHg 69%
    02:00 +7°C° 0 mm 2 mps 748 mmHg 71%
    03:00 +7°C° 0 mm 2 mps 748 mmHg 73%
    04:00 +6°C° 0 mm 2 mps 748 mmHg 75%
    05:00 +6°C° 0 mm 2 mps 748 mmHg 77%
    06:00 +6°C° 0 mm 2 mps 749 mmHg 80%
    07:00 +7°C° 0 mm 3 mps 749 mmHg 75%
    08:00 +8°C° 0 mm 3 mps 749 mmHg 71%
    09:00 +7°C° 0 mm 4 mps 749 mmHg 67%
    10:00 +8°C° 0 mm 5 mps 749 mmHg 66%
    11:00 +8°C° 0 mm 6 mps 748 mmHg 65%
    12:00 +9°C° 0 mm 6 mps 747 mmHg 64%
    13:00 +9°C° 0 mm 7 mps 747 mmHg 65%
    14:00 +9°C° 0 mm 7 mps 746 mmHg 66%
    15:00 +9°C° 0 mm 7 mps 745 mmHg 66%
    16:00 +9°C° 0 mm 7 mps 745 mmHg 70%
    17:00 +8°C° 0 mm 7 mps 744 mmHg 73%
    18:00 +8°C° 0 mm 6 mps 744 mmHg 76%
    19:00 +7°C° 0 mm 6 mps 744 mmHg 79%
    20:00 +7°C° 0 mm 6 mps 744 mmHg 82%
    21:00 +6°C° 0 mm 5 mps 744 mmHg 84%
    22:00 +6°C° 0 mm 5 mps 744 mmHg 85%
    23:00 +6°C° 0 mm 4 mps 744 mmHg 85%
    Show more